Location: Anan
(43.3550°N, 0.8171°E)
Time: 20:46:00
(UTC+00:00)

Cosmos 2322 Rocket - Pass Details

Date: 14 May 2026
Orbit: 831 x 850 km, 71.0° (Epoch: 6 June)

Event Time Altitude Azimuth Distance (km) Brightness Sun altitude
Rises 22:34:00 0° 328° (NNW) 3,407 6.6 -25.2°
Reaches altitude 10° 22:36:35 10° 321° (NW) 2,471 5.5 -25.4°
Maximum altitude 22:41:47 38° 254° (WSW) 1,260 3.1 -25.7°
Enters shadow 22:42:34 37° 235° (SW) 1,300 3.0 -25.8°
